#Datum;Uhrzeit;WR;Pac;DaySum;Status;WR;Pac;DaySum;Status;Pdc1;Udc;Temp;WR;Pac;DaySum;Status;Pdc1;Udc;Temp;WR;Pac;DaySum;Status;Pdc1;Udc;Temp;WR;Pac;DaySum;Status;Pdc1;Pdc2;Udc1;Udc2;Temp;WR;Pac;DaySum;Status;Pdc1;Pdc2;Udc1;Udc2;Temp;WR;Pac;DaySum;Status;Pdc1;Udc;Temp;WR;Pac;DaySum;Status;Pdc1;Udc;Temp;WR;Pac;DaySum;Status;Pdc1;Udc;Temp
20.11.21;23:55:00;1;291;12534;0;2;0;2865;0;0;0;0;3;0;1777;0;0;0;0;4;0;2457;0;0;0;0;5;0;6358;0;0;0;0;0;0;6;0;4718;0;0;0;0;0;0;7;0;3079;0;0;0;0;8;0;3099;0;0;0;0;9;0;1605;0;0;0;0
20.11.21;23:50:00;1;318;12510;0;2;0;2865;0;0;0;0;3;0;1777;0;0;0;0;4;0;2457;0;0;0;0;5;0;6358;0;0;0;0;0;0;6;0;4718;0;0;0;0;0;0;7;0;3079;0;0;0;0;8;0;3099;0;0;0;0;9;0;1605;0;0;0;0
20.11.21;23:45:00;1;317;12484;0;2;0;2865;0;0;0;0;3;0;1777;0;0;0;0;4;0;2457;0;0;0;0;5;0;6358;0;0;0;0;0;0;6;0;4718;0;0;0;0;0;0;7;0;3079;0;0;0;0;8;0;3099;0;0;0;0;9;0;1605;0;0;0;0
20.11.21;23:40:00;1;347;12457;0;2;0;2865;0;0;0;0;3;0;1777;0;0;0;0;4;0;2457;0;0;0;0;5;0;6358;0;0;0;0;0;0;6;0;4718;0;0;0;0;0;0;7;0;3079;0;0;0;0;8;0;3099;0;0;0;0;9;0;1605;0;0;0;0
20.11.21;23:35:00;1;312;12428;0;2;0;2865;0;0;0;0;3;0;1777;0;0;0;0;4;0;2457;0;0;0;0;5;0;6358;0;0;0;0;0;0;6;0;4718;0;0;0;0;0;0;7;0;3079;0;0;0;0;8;0;3099;0;0;0;0;9;0;1605;0;0;0;0
20.11.21;23:30:00;1;339;12402;0;2;0;2865;0;0;0;0;3;0;1777;0;0;0;0;4;0;2457;0;0;0;0;5;0;6358;0;0;0;0;0;0;6;0;4718;0;0;0;0;0;0;7;0;3079;0;0;0;0;8;0;3099;0;0;0;0;9;0;1605;0;0;0;0
20.11.21;23:25:00;1;338;12374;0;2;0;2865;0;0;0;0;3;0;1777;0;0;0;0;4;0;2457;0;0;0;0;5;0;6358;0;0;0;0;0;0;6;0;4718;0;0;0;0;0;0;7;0;3079;0;0;0;0;8;0;3099;0;0;0;0;9;0;1605;0;0;0;0
20.11.21;23:20:00;1;340;12345;0;2;0;2865;0;0;0;0;3;0;1777;0;0;0;0;4;0;2457;0;0;0;0;5;0;6358;0;0;0;0;0;0;6;0;4718;0;0;0;0;0;0;7;0;3079;0;0;0;0;8;0;3099;0;0;0;0;9;0;1605;0;0;0;0
20.11.21;23:15:00;1;296;12317;0;2;0;2865;0;0;0;0;3;0;1777;0;0;0;0;4;0;2457;0;0;0;0;5;0;6358;0;0;0;0;0;0;6;0;4718;0;0;0;0;0;0;7;0;3079;0;0;0;0;8;0;3099;0;0;0;0;9;0;1605;0;0;0;0
20.11.21;23:10:00;1;313;12292;0;2;0;2865;0;0;0;0;3;0;1777;0;0;0;0;4;0;2457;0;0;0;0;5;0;6358;0;0;0;0;0;0;6;0;4718;0;0;0;0;0;0;7;0;3079;0;0;0;0;8;0;3099;0;0;0;0;9;0;1605;0;0;0;0
20.11.21;23:05:00;1;319;12266;0;2;0;2865;0;0;0;0;3;0;1777;0;0;0;0;4;0;2457;0;0;0;0;5;0;6358;0;0;0;0;0;0;6;0;4718;0;0;0;0;0;0;7;0;3079;0;0;0;0;8;0;3099;0;0;0;0;9;0;1605;0;0;0;0
20.11.21;23:00:00;1;293;12239;0;2;0;2865;0;0;0;0;3;0;1777;0;0;0;0;4;0;2457;0;0;0;0;5;0;6358;0;0;0;0;0;0;6;0;4718;0;0;0;0;0;0;7;0;3079;0;0;0;0;8;0;3099;0;0;0;0;9;0;1605;0;0;0;0
20.11.21;22:55:00;1;268;12215;0;2;0;2865;0;0;0;0;3;0;1777;0;0;0;0;4;0;2457;0;0;0;0;5;0;6358;2;0;0;0;0;0;6;0;4718;2;0;0;0;0;0;7;0;3079;0;0;0;0;8;0;3099;0;0;0;0;9;0;1605;0;0;0;0
20.11.21;22:50:00;1;291;12192;0;2;0;2865;0;0;0;0;3;0;1777;0;0;0;0;4;0;2457;0;0;0;0;5;0;6358;2;0;0;0;0;0;6;0;4718;2;0;0;0;0;0;7;0;3079;0;0;0;0;8;0;3099;0;0;0;0;9;0;1605;0;0;0;0
20.11.21;22:45:00;1;300;12168;0;2;0;2865;0;0;0;0;3;0;1777;0;0;0;0;4;0;2457;0;0;0;0;5;0;6358;2;0;0;0;0;0;6;0;4718;2;0;0;0;0;0;7;0;3079;0;0;0;0;8;0;3099;0;0;0;0;9;0;1605;0;0;0;0
20.11.21;22:40:00;1;301;12143;0;2;0;2865;0;0;0;0;3;0;1777;0;0;0;0;4;0;2457;0;0;0;0;5;0;6358;2;0;0;0;0;0;6;0;4718;2;0;0;0;0;0;7;0;3079;0;0;0;0;8;0;3099;0;0;0;0;9;0;1605;0;0;0;0
20.11.21;22:35:00;1;330;12118;0;2;0;2865;0;0;0;0;3;0;1777;0;0;0;0;4;0;2457;0;0;0;0;5;0;6358;2;0;0;0;0;0;6;0;4718;2;0;0;0;0;0;7;0;3079;0;0;0;0;8;0;3099;0;0;0;0;9;0;1605;0;0;0;0
20.11.21;22:30:00;1;360;12089;0;2;0;2865;0;0;0;0;3;0;1777;0;0;0;0;4;0;2457;0;0;0;0;5;0;6358;2;0;0;0;0;0;6;0;4718;2;0;0;0;0;0;7;0;3079;0;0;0;0;8;0;3099;0;0;0;0;9;0;1605;0;0;0;0
20.11.21;22:25:00;1;346;12059;0;2;0;2865;0;0;0;0;3;0;1777;0;0;0;0;4;0;2457;0;0;0;0;5;0;6358;2;0;0;0;0;0;6;0;4718;2;0;0;0;0;0;7;0;3079;0;0;0;0;8;0;3099;0;0;0;0;9;0;1605;0;0;0;0
20.11.21;22:20:00;1;313;12031;0;2;0;2865;0;0;0;0;3;0;1777;0;0;0;0;4;0;2457;0;0;0;0;5;0;6358;2;0;0;0;0;0;6;0;4718;2;0;0;0;0;0;7;0;3079;0;0;0;0;8;0;3099;0;0;0;0;9;0;1605;0;0;0;0
20.11.21;22:15:00;1;445;12005;0;2;0;2865;0;0;0;0;3;0;1777;0;0;0;0;4;0;2457;0;0;0;0;5;0;6358;2;0;0;0;0;0;6;0;4718;2;0;0;0;0;0;7;0;3079;0;0;0;0;8;0;3099;0;0;0;0;9;0;1605;0;0;0;0
20.11.21;22:10:00;1;452;11973;0;2;0;2865;0;0;0;0;3;0;1777;0;0;0;0;4;0;2457;0;0;0;0;5;0;6358;2;0;0;0;0;0;6;0;4718;2;0;0;0;0;0;7;0;3079;0;0;0;0;8;0;3099;0;0;0;0;9;0;1605;0;0;0;0
20.11.21;22:05:00;1;471;11935;0;2;0;2865;0;0;0;0;3;0;1777;0;0;0;0;4;0;2457;0;0;0;0;5;0;6358;2;0;0;0;0;0;6;0;4718;2;0;0;0;0;0;7;0;3079;0;0;0;0;8;0;3099;0;0;0;0;9;0;1605;0;0;0;0
20.11.21;22:00:00;1;413;11896;0;2;0;2865;0;0;0;0;3;0;1777;0;0;0;0;4;0;2457;0;0;0;0;5;0;6358;2;0;0;0;0;0;6;0;4718;2;0;0;0;0;0;7;0;3079;0;0;0;0;8;0;3099;0;0;0;0;9;0;1605;0;0;0;0
20.11.21;21:55:00;1;411;11862;0;2;0;2865;0;0;0;0;3;0;1777;0;0;0;0;4;0;2457;0;0;0;0;5;0;6358;2;0;0;0;0;0;6;0;4718;2;0;0;0;0;0;7;0;3079;0;0;0;0;8;0;3099;0;0;0;0;9;0;1605;0;0;0;0
20.11.21;21:50:00;1;413;11827;0;2;0;2865;0;0;0;0;3;0;1777;0;0;0;0;4;0;2457;0;0;0;0;5;0;6358;2;0;0;0;0;0;6;0;4718;2;0;0;0;0;0;7;0;3079;0;0;0;0;8;0;3099;0;0;0;0;9;0;1605;0;0;0;0
20.11.21;21:45:00;1;452;11793;0;2;0;2865;0;0;0;0;3;0;1777;0;0;0;0;4;0;2457;0;0;0;0;5;0;6358;2;0;0;0;0;0;6;0;4718;2;0;0;0;0;0;7;0;3079;0;0;0;0;8;0;3099;0;0;0;0;9;0;1605;0;0;0;0
20.11.21;21:40:00;1;426;11755;0;2;0;2865;0;0;0;0;3;0;1777;0;0;0;0;4;0;2457;0;0;0;0;5;0;6358;2;0;0;0;0;0;6;0;4718;2;0;0;0;0;0;7;0;3079;0;0;0;0;8;0;3099;0;0;0;0;9;0;1605;0;0;0;0
20.11.21;21:35:00;1;389;11719;0;2;0;2865;0;0;0;0;3;0;1777;0;0;0;0;4;0;2457;0;0;0;0;5;0;6358;2;0;0;0;0;0;6;0;4718;2;0;0;0;0;0;7;0;3079;0;0;0;0;8;0;3099;0;0;0;0;9;0;1605;0;0;0;0
20.11.21;21:30:00;1;442;11686;0;2;0;2865;0;0;0;0;3;0;1777;0;0;0;0;4;0;2457;0;0;0;0;5;0;6358;2;0;0;0;0;0;6;0;4718;2;0;0;0;0;0;7;0;3079;0;0;0;0;8;0;3099;0;0;0;0;9;0;1605;0;0;0;0
20.11.21;21:25:00;1;446;11648;0;2;0;2865;0;0;0;0;3;0;1777;0;0;0;0;4;0;2457;0;0;0;0;5;0;6358;2;0;0;0;0;0;6;0;4718;2;0;0;0;0;0;7;0;3079;0;0;0;0;8;0;3099;0;0;0;0;9;0;1605;0;0;0;0
20.11.21;21:20:00;1;447;11611;0;2;0;2865;0;0;0;0;3;0;1777;0;0;0;0;4;0;2457;0;0;0;0;5;0;6358;2;0;0;0;0;0;6;0;4718;2;0;0;0;0;0;7;0;3079;0;0;0;0;8;0;3099;0;0;0;0;9;0;1605;0;0;0;0
20.11.21;21:15:00;1;426;11574;0;2;0;2865;0;0;0;0;3;0;1777;0;0;0;0;4;0;2457;0;0;0;0;5;0;6358;2;0;0;0;0;0;6;0;4718;2;0;0;0;0;0;7;0;3079;0;0;0;0;8;0;3099;0;0;0;0;9;0;1605;0;0;0;0
20.11.21;21:10:00;1;375;11538;0;2;0;2865;0;0;0;0;3;0;1777;0;0;0;0;4;0;2457;0;0;0;0;5;0;6358;2;0;0;0;0;0;6;0;4718;2;0;0;0;0;0;7;0;3079;0;0;0;0;8;0;3099;0;0;0;0;9;0;1605;0;0;0;0
20.11.21;21:05:00;1;367;11507;0;2;0;2865;0;0;0;0;3;0;1777;0;0;0;0;4;0;2457;0;0;0;0;5;0;6358;2;0;0;0;0;0;6;0;4718;2;0;0;0;0;0;7;0;3079;0;0;0;0;8;0;3099;0;0;0;0;9;0;1605;0;0;0;0
20.11.21;21:00:00;1;368;11477;0;2;0;2865;0;0;0;0;3;0;1777;0;0;0;0;4;0;2457;0;0;0;0;5;0;6358;2;0;0;0;0;0;6;0;4718;2;0;0;0;0;0;7;0;3079;0;0;0;0;8;0;3099;0;0;0;0;9;0;1605;0;0;0;0
20.11.21;20:55:00;1;394;11446;0;2;0;2865;0;0;0;0;3;0;1777;0;0;0;0;4;0;2457;0;0;0;0;5;0;6358;2;0;0;0;0;0;6;0;4718;2;0;0;0;0;0;7;0;3079;0;0;0;0;8;0;3099;0;0;0;0;9;0;1605;0;0;0;0
20.11.21;20:50:00;1;405;11412;0;2;0;2865;0;0;0;0;3;0;1777;0;0;0;0;4;0;2457;0;0;0;0;5;0;6358;2;0;0;0;0;0;6;0;4718;2;0;0;0;0;0;7;0;3079;0;0;0;0;8;0;3099;0;0;0;0;9;0;1605;0;0;0;0
20.11.21;20:45:00;1;469;11378;0;2;0;2865;0;0;0;0;3;0;1777;0;0;0;0;4;0;2457;0;0;0;0;5;0;6358;2;0;0;0;0;0;6;0;4718;2;0;0;0;0;0;7;0;3079;0;0;0;0;8;0;3099;0;0;0;0;9;0;1605;0;0;0;0
20.11.21;20:40:00;1;462;11339;0;2;0;2865;0;0;0;0;3;0;1777;0;0;0;0;4;0;2457;0;0;0;0;5;0;6358;2;0;0;0;0;0;6;0;4718;2;0;0;0;0;0;7;0;3079;0;0;0;0;8;0;3099;0;0;0;0;9;0;1605;0;0;0;0
20.11.21;20:35:00;1;434;11301;0;2;0;2865;0;0;0;0;3;0;1777;0;0;0;0;4;0;2457;0;0;0;0;5;0;6358;2;0;0;0;0;0;6;0;4718;2;0;0;0;0;0;7;0;3079;0;0;0;0;8;0;3099;0;0;0;0;9;0;1605;0;0;0;0
20.11.21;20:30:00;1;428;11266;0;2;0;2865;0;0;0;0;3;0;1777;0;0;0;0;4;0;2457;0;0;0;0;5;0;6358;2;0;0;0;0;0;6;0;4718;2;0;0;0;0;0;7;0;3079;0;0;0;0;8;0;3099;0;0;0;0;9;0;1605;0;0;0;0
20.11.21;20:25:00;1;501;11229;0;2;0;2865;0;0;0;0;3;0;1777;0;0;0;0;4;0;2457;0;0;0;0;5;0;6358;2;0;0;0;0;0;6;0;4718;2;0;0;0;0;0;7;0;3079;0;0;0;0;8;0;3099;0;0;0;0;9;0;1605;0;0;0;0
20.11.21;20:20:00;1;412;11188;0;2;0;2865;0;0;0;0;3;0;1777;0;0;0;0;4;0;2457;0;0;0;0;5;0;6358;2;0;0;0;0;0;6;0;4718;2;0;0;0;0;0;7;0;3079;0;0;0;0;8;0;3099;0;0;0;0;9;0;1605;0;0;0;0
20.11.21;20:15:00;1;389;11153;0;2;0;2865;0;0;0;0;3;0;1777;0;0;0;0;4;0;2457;0;0;0;0;5;0;6358;2;0;0;0;0;0;6;0;4718;2;0;0;0;0;0;7;0;3079;0;0;0;0;8;0;3099;0;0;0;0;9;0;1605;0;0;0;0
20.11.21;20:10:00;1;984;11120;0;2;0;2865;0;0;0;0;3;0;1777;0;0;0;0;4;0;2457;0;0;0;0;5;0;6358;2;0;0;0;0;0;6;0;4718;2;0;0;0;0;0;7;0;3079;0;0;0;0;8;0;3099;0;0;0;0;9;0;1605;0;0;0;0
20.11.21;20:05:00;1;2210;11024;0;2;0;2865;0;0;0;0;3;0;1777;0;0;0;0;4;0;2457;0;0;0;0;5;0;6358;2;0;0;0;0;0;6;0;4718;2;0;0;0;0;0;7;0;3079;0;0;0;0;8;0;3099;0;0;0;0;9;0;1605;0;0;0;0
20.11.21;20:00:00;1;456;10868;0;2;0;2865;0;0;0;0;3;0;1777;0;0;0;0;4;0;2457;0;0;0;0;5;0;6358;2;0;0;0;0;0;6;0;4718;2;0;0;0;0;0;7;0;3079;0;0;0;0;8;0;3099;0;0;0;0;9;0;1605;0;0;0;0
20.11.21;19:55:00;1;351;10831;0;2;0;2865;0;0;0;0;3;0;1777;0;0;0;0;4;0;2457;0;0;0;0;5;0;6358;2;0;0;0;0;0;6;0;4718;2;0;0;0;0;0;7;0;3079;0;0;0;0;8;0;3099;0;0;0;0;9;0;1605;0;0;0;0
20.11.21;19:50:00;1;354;10801;0;2;0;2865;0;0;0;0;3;0;1777;0;0;0;0;4;0;2457;0;0;0;0;5;0;6358;2;0;0;0;0;0;6;0;4718;2;0;0;0;0;0;7;0;3079;0;0;0;0;8;0;3099;0;0;0;0;9;0;1605;0;0;0;0
20.11.21;19:45:00;1;346;10772;0;2;0;2865;0;0;0;0;3;0;1777;0;0;0;0;4;0;2457;0;0;0;0;5;0;6358;2;0;0;0;0;0;6;0;4718;2;0;0;0;0;0;7;0;3079;0;0;0;0;8;0;3099;0;0;0;0;9;0;1605;0;0;0;0
20.11.21;19:40:00;1;362;10743;0;2;0;2865;0;0;0;0;3;0;1777;0;0;0;0;4;0;2457;0;0;0;0;5;0;6358;2;0;0;0;0;0;6;0;4718;2;0;0;0;0;0;7;0;3079;0;0;0;0;8;0;3099;0;0;0;0;9;0;1605;0;0;0;0
20.11.21;19:35:00;1;379;10712;0;2;0;2865;0;0;0;0;3;0;1777;0;0;0;0;4;0;2457;0;0;0;0;5;0;6358;2;0;0;0;0;0;6;0;4718;2;0;0;0;0;0;7;0;3079;0;0;0;0;8;0;3099;0;0;0;0;9;0;1605;0;0;0;0
20.11.21;19:30:00;1;610;10680;0;2;0;2865;0;0;0;0;3;0;1777;0;0;0;0;4;0;2457;0;0;0;0;5;0;6358;2;0;0;0;0;0;6;0;4718;2;0;0;0;0;0;7;0;3079;0;0;0;0;8;0;3099;0;0;0;0;9;0;1605;0;0;0;0
20.11.21;19:25:00;1;1001;10626;0;2;0;2865;0;0;0;0;3;0;1777;0;0;0;0;4;0;2457;0;0;0;0;5;0;6358;2;0;0;0;0;0;6;0;4718;2;0;0;0;0;0;7;0;3079;0;0;0;0;8;0;3099;0;0;0;0;9;0;1605;0;0;0;0
20.11.21;19:20:00;1;811;10543;0;2;0;2865;0;0;0;0;3;0;1777;0;0;0;0;4;0;2457;0;0;0;0;5;0;6358;2;0;0;0;0;0;6;0;4718;2;0;0;0;0;0;7;0;3079;0;0;0;0;8;0;3099;0;0;0;0;9;0;1605;0;0;0;0
20.11.21;19:15:00;1;415;10476;0;2;0;2865;0;0;0;0;3;0;1777;0;0;0;0;4;0;2457;0;0;0;0;5;0;6358;2;0;0;0;0;0;6;0;4718;2;0;0;0;0;0;7;0;3079;0;0;0;0;8;0;3099;0;0;0;0;9;0;1605;0;0;0;0
20.11.21;19:10:00;1;351;10443;0;2;0;2865;0;0;0;0;3;0;1777;0;0;0;0;4;0;2457;0;0;0;0;5;0;6358;2;0;0;0;0;0;6;0;4718;2;0;0;0;0;0;7;0;3079;0;0;0;0;8;0;3099;0;0;0;0;9;0;1605;0;0;0;0
20.11.21;19:05:00;1;343;10413;0;2;0;2865;0;0;0;0;3;0;1777;0;0;0;0;4;0;2457;0;0;0;0;5;0;6358;2;0;0;0;0;0;6;0;4718;2;0;0;0;0;0;7;0;3079;0;0;0;0;8;0;3099;0;0;0;0;9;0;1605;0;0;0;0
20.11.21;19:00:00;1;317;10385;0;2;0;2865;0;0;0;0;3;0;1777;0;0;0;0;4;0;2457;0;0;0;0;5;0;6358;2;0;0;0;0;0;6;0;4718;2;0;0;0;0;0;7;0;3079;0;0;0;0;8;0;3099;0;0;0;0;9;0;1605;0;0;0;0
20.11.21;18:55:00;1;337;10359;0;2;0;2865;0;0;0;0;3;0;1777;0;0;0;0;4;0;2457;0;0;0;0;5;0;6358;2;0;0;0;0;0;6;0;4718;2;0;0;0;0;0;7;0;3079;0;0;0;0;8;0;3099;0;0;0;0;9;0;1605;0;0;0;0
20.11.21;18:50:00;1;306;10331;0;2;0;2865;0;0;0;0;3;0;1777;0;0;0;0;4;0;2457;0;0;0;0;5;0;6358;2;0;0;0;0;0;6;0;4718;2;0;0;0;0;0;7;0;3079;0;0;0;0;8;0;3099;0;0;0;0;9;0;1605;0;0;0;0
20.11.21;18:45:00;1;291;10305;0;2;0;2865;0;0;0;0;3;0;1777;0;0;0;0;4;0;2457;0;0;0;0;5;0;6358;2;0;0;0;0;0;6;0;4718;2;0;0;0;0;0;7;0;3079;0;0;0;0;8;0;3099;0;0;0;0;9;0;1605;0;0;0;0
20.11.21;18:40:00;1;277;10281;0;2;0;2865;0;0;0;0;3;0;1777;0;0;0;0;4;0;2457;0;0;0;0;5;0;6358;2;0;0;0;0;0;6;0;4718;2;0;0;0;0;0;7;0;3079;0;0;0;0;8;0;3099;0;0;0;0;9;0;1605;0;0;0;0
20.11.21;18:35:00;1;258;10258;0;2;0;2865;0;0;0;0;3;0;1777;0;0;0;0;4;0;2457;0;0;0;0;5;0;6358;2;0;0;0;0;0;6;0;4718;2;0;0;0;0;0;7;0;3079;0;0;0;0;8;0;3099;0;0;0;0;9;0;1605;0;0;0;0
20.11.21;18:30:00;1;258;10236;0;2;0;2865;0;0;0;0;3;0;1777;0;0;0;0;4;0;2457;0;0;0;0;5;0;6358;2;0;0;0;0;0;6;0;4718;2;0;0;0;0;0;7;0;3079;0;0;0;0;8;0;3099;0;0;0;0;9;0;1605;0;0;0;0
20.11.21;18:25:00;1;283;10215;0;2;0;2865;0;0;0;0;3;0;1777;0;0;0;0;4;0;2457;0;0;0;0;5;0;6358;2;0;0;0;0;0;6;0;4718;2;0;0;0;0;0;7;0;3079;0;0;0;0;8;0;3099;0;0;0;0;9;0;1605;0;0;0;0
20.11.21;18:20:00;1;314;10191;0;2;0;2865;0;0;0;0;3;0;1777;0;0;0;0;4;0;2457;0;0;0;0;5;0;6358;2;0;0;0;0;0;6;0;4718;2;0;0;0;0;0;7;0;3079;0;0;0;0;8;0;3099;0;0;0;0;9;0;1605;0;0;0;0
20.11.21;18:15:00;1;347;10165;0;2;0;2865;0;0;0;0;3;0;1777;0;0;0;0;4;0;2457;0;0;0;0;5;0;6358;2;0;0;0;0;0;6;0;4718;2;0;0;0;0;0;7;0;3079;0;0;0;0;8;0;3099;0;0;0;0;9;0;1605;0;0;0;0
20.11.21;18:10:00;1;385;10135;0;2;0;2865;0;0;0;0;3;0;1777;0;0;0;0;4;0;2457;0;0;0;0;5;0;6358;2;0;0;0;0;0;6;0;4718;2;0;0;0;0;0;7;0;3079;0;0;0;0;8;0;3099;0;0;0;0;9;0;1605;0;0;0;0
20.11.21;18:05:00;1;355;10103;0;2;0;2865;0;0;0;0;3;0;1777;0;0;0;0;4;0;2457;0;0;0;0;5;0;6358;2;0;0;0;0;0;6;0;4718;2;0;0;0;0;0;7;0;3079;0;0;0;0;8;0;3099;0;0;0;0;9;0;1605;0;0;0;0
20.11.21;18:00:00;1;298;10073;0;2;0;2865;0;0;0;0;3;0;1777;0;0;0;0;4;0;2457;0;0;0;0;5;0;6358;2;0;0;0;0;0;6;0;4718;2;0;0;0;0;0;7;0;3079;0;0;0;0;8;0;3099;0;0;0;0;9;0;1605;0;0;0;0
20.11.21;17:55:00;1;306;10048;0;2;0;2865;0;0;0;0;3;0;1777;0;0;0;0;4;0;2457;0;0;0;0;5;0;6358;2;0;0;0;0;0;6;0;4718;2;0;0;0;0;0;7;0;3079;0;0;0;0;8;0;3099;0;0;0;0;9;0;1605;0;0;0;0
20.11.21;17:50:00;1;307;10023;0;2;0;2865;0;0;0;0;3;0;1777;0;0;0;0;4;0;2457;0;0;0;0;5;0;6358;2;0;0;0;0;0;6;0;4718;2;0;0;0;0;0;7;0;3079;0;0;0;0;8;0;3099;0;0;0;0;9;0;1605;0;0;0;0
20.11.21;17:45:00;1;272;9997;0;2;0;2865;0;0;0;0;3;0;1777;0;0;0;0;4;0;2457;0;0;0;0;5;0;6358;2;0;0;0;0;0;6;0;4718;2;0;0;0;0;0;7;0;3079;0;0;0;0;8;0;3099;0;0;0;0;9;0;1605;0;0;0;0
20.11.21;17:40:00;1;297;9974;0;2;0;2865;0;0;0;0;3;0;1777;0;0;0;0;4;0;2457;0;0;0;0;5;0;6358;2;0;0;0;0;0;6;0;4718;2;0;0;0;0;0;7;0;3079;0;0;0;0;8;0;3099;0;0;0;0;9;0;1605;0;0;0;0
20.11.21;17:35:00;1;395;9950;0;2;0;2865;0;0;0;0;3;0;1777;0;0;0;0;4;0;2457;0;0;0;0;5;0;6358;2;0;0;0;0;0;6;0;4718;2;0;0;0;0;0;7;0;3079;0;0;0;0;8;0;3099;0;0;0;0;9;0;1605;0;0;0;0
20.11.21;17:30:00;1;397;9917;0;2;0;2865;0;0;0;0;3;0;1777;0;0;0;0;4;0;2457;0;0;0;0;5;0;6358;2;0;0;0;0;0;6;0;4718;2;0;0;0;0;0;7;0;3079;0;0;0;0;8;0;3099;0;0;0;0;9;0;1605;0;0;0;0
20.11.21;17:25:00;1;395;9883;0;2;0;2865;0;0;0;0;3;0;1777;0;0;0;0;4;0;2457;0;0;0;0;5;0;6358;2;0;0;0;0;0;6;0;4718;2;0;0;0;0;0;7;0;3079;0;0;0;0;8;0;3099;0;0;0;0;9;0;1605;0;0;0;0
20.11.21;17:20:00;1;409;9850;0;2;0;2865;0;0;0;0;3;0;1777;0;0;0;0;4;0;2457;0;0;0;0;5;0;6358;2;0;0;0;0;0;6;0;4718;2;0;0;0;0;0;7;0;3079;0;0;0;0;8;0;3099;0;0;0;0;9;0;1605;0;0;0;0
20.11.21;17:15:00;1;401;9816;0;2;0;2865;0;0;0;0;3;0;1777;0;0;0;0;4;0;2457;0;0;0;0;5;0;6358;2;0;0;0;0;0;6;0;4718;2;0;0;0;0;0;7;0;3079;0;0;0;0;8;0;3099;0;0;0;0;9;0;1605;0;0;0;0
20.11.21;17:10:00;1;421;9782;0;2;0;2865;0;0;0;0;3;0;1777;0;0;0;0;4;0;2457;0;0;0;0;5;0;6358;2;0;0;0;0;0;6;0;4718;2;0;0;0;0;0;7;0;3079;0;0;0;0;8;0;3099;0;0;0;0;9;0;1605;0;0;0;0
20.11.21;17:05:00;1;388;9748;0;2;0;2865;0;0;0;0;3;0;1777;0;0;0;0;4;0;2457;0;0;0;0;5;0;6358;2;0;0;0;0;0;6;0;4718;2;0;0;0;0;0;7;0;3079;0;0;0;0;8;0;3099;0;0;0;0;9;0;1605;0;0;0;0
20.11.21;17:00:00;1;516;9713;0;2;0;2865;0;0;0;0;3;0;1777;0;0;0;0;4;0;2457;0;0;0;0;5;0;6358;2;0;0;0;0;0;6;0;4718;2;0;0;0;0;0;7;0;3079;0;0;0;0;8;0;3099;0;0;0;0;9;0;1605;0;0;0;0
20.11.21;16:55:00;1;438;9673;0;2;0;2865;0;0;0;0;3;0;1777;0;0;0;0;4;0;2457;0;0;0;0;5;0;6358;2;0;0;0;0;0;6;0;4718;2;0;0;0;0;0;7;0;3079;0;0;0;0;8;0;3099;0;0;0;0;9;0;1605;0;0;0;0
20.11.21;16:50:00;1;1127;9633;0;2;0;2865;0;0;0;0;3;0;1777;0;0;0;0;4;0;2457;0;0;0;0;5;0;6358;2;0;0;0;0;0;6;0;4718;2;0;0;0;0;0;7;0;3079;0;0;0;0;8;0;3099;0;0;0;0;9;0;1605;0;0;0;0
20.11.21;16:45:00;1;2179;9536;0;2;0;2865;0;0;0;0;3;0;1777;0;0;85;5;4;0;2457;0;0;0;0;5;0;6358;2;0;0;0;0;0;6;0;4718;2;0;0;0;0;0;7;0;3079;0;0;0;0;8;0;3099;0;0;0;0;9;0;1605;0;0;0;0
20.11.21;16:40:00;1;2207;9355;0;2;0;2865;0;0;224;10;3;0;1777;6;0;295;15;4;0;2457;0;0;29;5;5;0;6358;2;0;0;0;0;0;6;0;4718;2;0;0;0;0;0;7;0;3079;0;0;0;0;8;0;3099;0;0;0;0;9;0;1605;0;0;0;0
20.11.21;16:35:00;1;2154;9171;0;2;0;2865;6;0;291;12;3;0;1777;6;0;332;15;4;0;2457;2;0;86;13;5;0;6358;2;0;0;0;0;0;6;0;4718;2;0;0;0;0;0;7;0;3079;0;0;0;0;8;0;3099;0;0;0;0;9;0;1605;0;0;0;0
20.11.21;16:30:00;1;1548;8992;0;2;0;2865;6;0;315;12;3;0;1777;6;0;386;15;4;0;2457;1;0;113;14;5;0;6358;2;0;4;243;241;21;6;0;4718;2;10;7;12;12;3;7;0;3079;0;0;0;0;8;0;3099;0;0;0;0;9;0;1605;0;0;128;6
20.11.21;16:25:00;1;485;8890;0;2;0;2865;6;0;335;12;3;0;1777;6;1;392;15;4;0;2457;1;0;135;14;5;0;6358;26;0;0;354;353;26;6;0;4718;2;0;0;260;258;14;7;0;3079;0;0;212;13;8;0;3099;6;0;266;16;9;0;1605;6;0;287;12
20.11.21;16:20:00;1;430;8852;0;2;0;2865;6;0;353;12;3;0;1777;6;1;432;15;4;0;2457;1;0;163;14;5;0;6358;23;0;0;389;398;26;6;0;4718;23;0;0;525;513;24;7;0;3079;6;0;310;17;8;0;3099;6;0;317;16;9;0;1605;6;0;330;12
20.11.21;16:15:00;1;435;8814;0;2;0;2865;6;0;366;12;3;0;1777;6;2;445;15;4;0;2457;1;0;184;14;5;0;6358;26;0;0;406;569;26;6;0;4718;26;0;0;537;533;25;7;0;3079;6;0;349;17;8;0;3099;6;0;357;16;9;0;1605;6;0;378;12
20.11.21;16:10:00;1;551;8775;0;2;0;2865;6;0;382;13;3;1;1777;6;2;470;16;4;0;2457;1;0;203;15;5;7;6358;4;0;0;408;643;27;6;7;4718;1;0;0;562;550;25;7;0;3079;6;0;389;17;8;0;3099;6;0;395;17;9;0;1605;6;0;423;13
20.11.21;16:05:00;1;524;8731;0;2;0;2865;6;0;394;13;3;2;1777;6;3;484;16;4;0;2457;3;0;209;15;5;73;6357;4;5;12;371;591;28;6;12;4717;1;0;2;574;556;25;7;0;3079;6;2;423;17;8;0;3099;6;2;428;17;9;0;1605;6;0;464;13
20.11.21;16:00:00;1;453;8687;0;2;0;2865;6;0;401;13;3;0;1777;3;9;476;16;4;2;2457;3;2;205;15;5;90;6351;4;14;16;371;591;28;6;35;4716;1;0;10;560;540;26;7;2;3079;6;1;442;18;8;1;3099;6;3;430;17;9;0;1605;6;1;486;13
20.11.21;15:55:00;1;407;8647;0;2;0;2865;6;0;410;13;3;2;1777;6;8;505;16;4;1;2457;3;1;200;15;5;114;6343;4;35;30;371;591;28;6;85;4713;4;0;26;520;502;26;7;0;3079;6;5;455;18;8;1;3098;6;9;432;17;9;0;1605;6;0;524;13
20.11.21;15:50:00;1;490;8613;0;2;6;2865;6;9;408;14;3;1;1776;6;7;517;16;4;15;2457;3;15;199;16;5;141;6334;4;46;47;371;591;28;6;105;4705;4;6;38;520;502;26;7;1;3079;6;7;469;18;8;2;3098;6;7;473;18;9;3;1605;3;8;498;13
20.11.21;15:45:00;1;2398;8567;0;2;50;2864;4;75;361;14;3;4;1776;6;11;519;16;4;12;2456;3;13;198;16;5;168;6322;4;62;54;371;591;28;6;128;4696;4;17;47;520;502;26;7;0;3078;6;0;501;18;8;6;3098;4;9;477;18;9;3;1604;6;6;525;13
20.11.21;15:40:00;1;2397;8369;0;2;68;2860;4;91;359;14;3;11;1776;6;21;505;16;4;25;2454;3;26;198;16;5;201;6307;4;87;70;371;591;28;6;155;4685;4;29;65;520;501;26;7;47;3078;4;71;354;18;8;46;3098;4;77;383;18;9;4;1604;6;7;539;13
20.11.21;15:35:00;1;2322;8168;0;2;74;2854;4;97;358;14;3;0;1775;6;0;557;17;4;41;2452;3;43;198;16;5;208;6291;4;91;74;371;591;28;6;160;4673;4;35;65;520;502;26;7;49;3075;4;75;356;18;8;50;3094;4;87;418;18;9;5;1604;6;10;537;14
20.11.21;15:30:00;1;1696;7973;0;2;87;2848;4;111;357;14;3;14;1775;3;23;503;17;4;46;2449;3;48;198;16;5;237;6273;4;102;89;371;591;28;6;178;4659;4;45;76;520;502;26;7;67;3070;4;88;387;18;8;60;3090;4;93;419;18;9;4;1603;6;8;544;14
20.11.21;15:25:00;1;463;7859;0;2;104;2841;4;128;358;15;3;58;1774;4;88;437;17;4;67;2445;3;70;198;16;5;271;6253;4;120;101;371;591;28;6;205;4644;4;53;89;520;502;26;7;83;3065;4;105;388;18;8;82;3085;4;111;424;18;9;7;1603;6;12;544;14
20.11.21;15:20:00;1;495;7818;0;2;128;2832;4;156;366;15;3;74;1769;4;109;466;17;4;88;2439;3;91;207;16;5;320;6230;4;149;121;371;591;28;6;241;4627;4;79;106;520;502;26;7;106;3058;4;136;403;18;8;111;3078;4;138;412;18;9;19;1602;3;26;535;14
20.11.21;15:15:00;1;2323;7759;0;2;162;2822;4;190;366;15;3;98;1763;4;132;485;17;4;124;2432;5;129;222;16;5;384;6203;4;185;156;388;591;28;6;284;4606;4;102;129;520;502;26;7;148;3049;4;169;407;18;8;136;3069;4;172;407;18;9;73;1601;4;99;458;15
20.11.21;15:10:00;1;2333;7561;0;2;209;2808;4;239;373;15;3;128;1754;4;161;487;17;4;174;2422;5;181;224;16;5;472;6170;4;227;189;399;606;28;6;343;4582;4;131;161;520;502;26;7;191;3037;4;227;436;18;8;200;3057;4;231;427;18;9;102;1594;4;130;491;15
20.11.21;15:05:00;1;2231;7367;0;2;233;2791;4;264;378;15;3;140;1744;4;178;502;17;4;190;2407;5;198;226;16;5;520;6130;4;257;211;403;629;28;6;369;4553;4;149;171;520;502;26;7;228;3021;4;262;423;18;8;232;3041;4;271;437;18;9;121;1586;4;152;512;15
20.11.21;15:00:00;1;1994;7179;0;2;233;2771;4;281;372;15;3;153;1732;4;191;503;18;4;206;2391;5;214;222;16;5;541;6087;4;271;224;398;615;28;6;391;4522;4;157;185;520;502;26;7;254;3002;4;290;451;18;8;257;3021;4;294;453;18;9;133;1576;4;162;513;15
20.11.21;14:55:00;1;395;7020;0;2;271;2752;4;301;374;15;3;168;1719;4;204;499;18;4;222;2374;5;232;232;16;5;584;6041;4;278;237;402;614;28;6;423;4490;4;167;206;520;546;26;7;261;2981;4;301;475;18;8;275;3000;4;313;461;18;9;148;1565;4;177;500;15
20.11.21;14:50:00;1;331;6986;0;2;270;2729;4;302;373;15;3;168;1705;4;208;503;18;4;224;2356;5;234;228;16;5;580;5992;4;283;238;393;593;28;6;431;4454;4;171;211;520;546;26;7;284;2959;4;320;469;18;8;280;2977;4;317;466;18;9;151;1552;4;180;513;15
20.11.21;14:45:00;1;414;6958;0;2;267;2706;4;298;373;15;3;168;1691;4;202;493;18;4;221;2337;5;230;229;16;5;581;5943;4;280;237;400;604;28;6;426;4418;4;167;206;520;541;26;7;264;2935;4;302;469;18;8;269;2954;4;310;447;18;9;144;1540;4;171;515;15
20.11.21;14:40:00;1;417;6923;0;2;274;2684;4;304;374;15;3;171;1677;4;208;475;18;4;228;2318;5;237;228;16;5;592;5895;4;280;246;394;622;28;6;434;4383;4;171;213;520;538;26;7;274;2913;4;307;452;18;8;268;2931;4;312;452;18;9;146;1528;4;173;512;15
20.11.21;14:35:00;1;536;6888;0;2;278;2661;4;310;376;16;3;172;1663;4;210;481;18;4;231;2299;5;241;228;16;5;611;5845;4;292;249;408;625;28;6;443;4347;4;175;217;520;547;26;7;278;2890;4;311;450;18;8;280;2909;4;315;450;18;9;146;1515;4;174;499;15
20.11.21;14:30:00;1;531;6841;0;2;314;2638;4;348;387;16;3;198;1649;4;236;492;18;4;266;2280;5;276;233;16;5;684;5794;4;342;283;406;636;28;6;506;4309;4;212;242;555;541;26;7;286;2867;4;332;457;19;8;290;2886;4;336;467;18;9;158;1503;4;186;495;15
20.11.21;14:25:00;1;475;6797;0;2;372;2612;4;404;389;16;3;231;1632;4;276;494;18;4;320;2258;5;333;233;16;5;795;5736;4;403;333;416;659;28;6;581;4267;4;240;275;545;552;26;7;370;2843;4;399;453;19;8;366;2862;4;401;465;18;9;192;1490;4;223;497;15
20.11.21;14:20:00;1;470;6757;0;2;393;2581;4;430;386;16;3;246;1613;4;289;507;18;4;340;2231;5;354;233;16;5;850;5668;4;423;353;411;651;28;6;615;4218;4;255;293;539;543;26;7;395;2812;4;441;454;19;8;405;2831;4;448;455;18;9;215;1474;4;249;504;16
20.11.21;14:15:00;1;533;6718;0;2;403;2548;4;439;387;16;3;252;1592;4;296;505;18;4;348;2203;5;362;235;16;5;873;5598;4;434;356;413;658;28;6;647;4166;4;260;310;567;551;26;7;403;2780;4;444;442;19;8;409;2797;4;455;450;18;9;218;1456;4;251;513;16
20.11.21;14:10:00;1;603;6672;0;2;431;2515;4;469;389;16;3;272;1571;4;315;501;18;4;376;2174;5;392;232;16;5;930;5525;4;467;389;417;677;28;6;689;4112;4;289;322;559;549;26;7;462;2746;4;492;466;19;8;459;2763;4;495;471;18;9;241;1438;4;276;509;16
20.11.21;14:05:00;1;601;6621;0;2;435;2479;4;474;390;16;3;275;1549;4;317;494;18;4;379;2143;5;395;235;16;5;953;5446;4;481;397;419;648;28;6;688;4054;4;287;331;541;551;26;7;478;2708;4;509;467;19;8;471;2725;4;517;468;18;9;251;1418;4;286;509;16
20.11.21;14:00:00;1;560;6572;0;2;435;2442;4;473;392;16;3;274;1526;4;318;498;18;4;377;2111;5;393;233;16;5;946;5367;4;473;396;410;660;28;6;701;3996;4;292;330;553;548;26;7;469;2668;4;508;466;19;8;472;2685;4;512;459;18;9;249;1397;4;286;511;16
20.11.21;13:55:00;1;574;6525;0;2;451;2406;4;489;389;16;3;284;1503;4;327;496;18;4;389;2080;5;405;235;16;5;972;5288;4;489;409;412;650;28;6;716;3938;4;299;344;550;559;26;7;472;2629;4;522;463;19;8;483;2646;4;527;453;18;9;256;1376;4;292;510;16
20.11.21;13:50:00;1;529;6477;0;2;459;2368;4;498;395;16;3;292;1479;4;334;494;18;4;396;2047;5;413;236;16;5;985;5207;4;496;417;418;659;28;6;726;3878;4;299;347;551;545;26;7;491;2589;4;532;456;19;8;500;2606;4;543;463;18;9;265;1355;4;298;516;16
20.11.21;13:45:00;1;510;6433;0;2;465;2330;4;503;387;16;3;293;1455;4;335;512;18;4;401;2014;5;417;232;17;5;993;5124;4;497;416;414;654;28;6;738;3817;4;311;343;558;559;26;7;497;2548;4;539;456;19;8;509;2564;4;547;465;18;9;266;1333;4;302;521;16